Weather History for Santa Barbara, CA

Change the Weather History Date:

Monday, October 4, 2010

  Actual Average Record
Temperature  
Mean Temperature 65 °F 63 °F  
Max Temperature 74 °F 73 °F 103 °F (1987)
Min Temperature 55 °F 53 °F 42 °F (1989)
Degree Days  
Heating Degree Days 0 3  
Month to date heating degree days 3 11  
Since 1 July heating degree days 283 106  
Cooling Degree Days 0 1  
Month to date cooling degree days 6 4  
Year to date cooling degree days 89 175  
Growing Degree Days 15 (Base 50)    
Moisture  
Dew Point 54 °F    
Average Humidity 65    
Maximum Humidity 100    
Minimum Humidity 29    
Precipitation  
Precipitation 0.02 in 0.01 in 0.08 in (1963)
Month to date precipitation 0.02 0.06  
Year to date precipitation 13.76 12.52  
Since 1 July precipitation 0.03 0.47  
Sea Level Pressure  
Sea Level Pressure 29.96 in    
Wind  
Wind Speed 7 mph (West)    
Max Wind Speed 23 mph    
Max Gust Speed 30 mph    
Visibility 8 miles    
Events      
T = Trace of Precipitation, MM = Missing Value Source: NWS Daily Summary

Daily Weather History Graph

Daily Weather History Graph

Search for Another Location

Airport:

Trip Planner

Search our weather history database for the weather conditions in past years. The results will help you decide how hot, cold, wet, or windy it might be!

Date:

Astronomy

Oct. 04, 2010 Rise Set
Actual Time 6:56 AM PDT 6:39 PM PDT
Civil Twilight 6:31 AM PDT 7:04 PM PDT
Nautical Twilight 6:02 AM PDT 7:33 PM PDT
Astronomical Twilight 5:32 AM PDT 8:02 PM PDT
Moon 3:20 AM PDT (10/4) 4:33 PM PDT (10/4)
Length of Visible Light 12h 33m
Length of Day
11h 43m
Waning Crescent, 13% of the Moon is Illuminated
Oct 4
Waning Crescent
Oct 7
New
Oct 14
First Quarter
Oct 22
Full
Oct 30
Last Quarter

Hourly Weather History & Observations

Time (PDT) Temp. Dew Point Humidity Pressure Visibility Wind Dir Wind Speed Gust Speed Precip Events Conditions
12:53 AM 60.1 °F 59.0 °F 96% 29.96 in 3.0 mi SSE 4.6 mph - N/A   Overcast
1:02 AM 60.8 °F 59.0 °F 94% 29.96 in 2.5 mi South 5.8 mph - N/A   Overcast
1:44 AM 60.8 °F 59.0 °F 94% 29.96 in 3.0 mi South 5.8 mph - N/A   Overcast
1:53 AM 59.0 °F 57.9 °F 96% 29.97 in 3.0 mi South 5.8 mph - N/A   Overcast
2:53 AM 60.1 °F 57.9 °F 93% 29.96 in 5.0 mi Calm Calm - 0.01 in   Overcast
3:39 AM 60.8 °F 57.2 °F 88% 29.96 in 10.0 mi Calm Calm - N/A   Overcast
3:53 AM 60.1 °F 57.9 °F 93% 29.95 in 10.0 mi Calm Calm - N/A   Overcast
4:05 AM 60.8 °F 57.2 °F 88% 29.95 in 10.0 mi Calm Calm - N/A   Overcast
4:11 AM 60.8 °F 57.2 °F 88% 29.95 in 10.0 mi Calm Calm - N/A   Overcast
4:20 AM 60.8 °F 57.2 °F 88% 29.95 in 10.0 mi Calm Calm - N/A   Overcast
4:53 AM 60.1 °F 57.9 °F 93% 29.95 in 4.0 mi Calm Calm - N/A   Overcast
5:38 AM 59.0 °F 59.0 °F 100% 29.96 in 2.5 mi Calm Calm - N/A   Overcast
5:48 AM 59.0 °F 59.0 °F 100% 29.96 in 3.0 mi Calm Calm - N/A   Overcast
5:53 AM 59.0 °F 59.0 °F 100% 29.96 in 4.0 mi Calm Calm - N/A   Overcast
6:11 AM 59.0 °F 57.2 °F 94% 29.97 in 7.0 mi WSW 3.5 mph - N/A   Overcast
6:41 AM 59.0 °F 57.2 °F 94% 29.96 in 4.0 mi Calm Calm - N/A   Overcast
6:53 AM 59.0 °F 57.9 °F 96% 29.97 in 4.0 mi Calm Calm - N/A   Overcast
7:10 AM 59.0 °F 57.2 °F 94% 29.97 in 10.0 mi Calm Calm - N/A   Overcast
7:53 AM 60.1 °F 57.9 °F 93% 29.97 in 6.0 mi Calm Calm - N/A   Overcast
8:53 AM 60.1 °F 57.0 °F 90% 29.99 in 3.0 mi West 3.5 mph - N/A   Overcast
9:32 AM 62.6 °F 57.2 °F 82% 29.99 in 10.0 mi Calm Calm - N/A   Overcast
9:53 AM 62.1 °F 57.9 °F 86% 29.99 in 10.0 mi Calm Calm - N/A   Mostly Cloudy
10:53 AM 64.0 °F 57.0 °F 78% 29.99 in 10.0 mi SSW 5.8 mph - N/A   Mostly Cloudy
11:53 AM 66.0 °F 55.0 °F 68% 29.98 in 10.0 mi WSW 4.6 mph - N/A   Overcast
12:53 PM 68.0 °F 55.9 °F 65% 29.96 in 10.0 mi SSW 6.9 mph - N/A   Overcast
1:53 PM 73.0 °F 51.1 °F 46% 29.94 in 10.0 mi North 15.0 mph 19.6 mph 0.01 in   Mostly Cloudy
2:53 PM 73.0 °F 44.1 °F 35% 29.92 in 10.0 mi North 16.1 mph - N/A   Scattered Clouds
3:53 PM 73.0 °F 39.9 °F 30% 29.91 in 10.0 mi NNW 15.0 mph 21.9 mph N/A   Partly Cloudy
4:53 PM 68.0 °F 44.1 °F 42% 29.91 in 10.0 mi NNW 15.0 mph 27.6 mph N/A   Partly Cloudy
5:53 PM 64.0 °F 46.0 °F 52% 29.92 in 10.0 mi West 13.8 mph 20.7 mph N/A   Partly Cloudy
6:53 PM 62.1 °F 46.0 °F 56% 29.92 in 10.0 mi NW 12.7 mph 29.9 mph N/A   Scattered Clouds
7:53 PM 61.0 °F 45.0 °F 56% 29.94 in 10.0 mi NNW 10.4 mph 24.2 mph N/A   Scattered Clouds
8:53 PM 59.0 °F 45.0 °F 60% 29.95 in 10.0 mi WNW 5.8 mph 17.3 mph N/A   Clear
9:53 PM 60.1 °F 44.1 °F 55% 29.96 in 10.0 mi NW 11.5 mph - N/A   Clear
10:53 PM 57.9 °F 45.0 °F 62% 29.96 in 10.0 mi NW 8.1 mph - N/A   Clear
11:53 PM 55.9 °F 45.0 °F 67% 29.96 in 10.0 mi West 8.1 mph - N/A   Clear